Location: *
(34.8620°S, 39.3380°E)
Time: 21:49:37
(UTC+00:00)

SKYSAT 2 - Pass Details

Date: 10 December 2023
Orbit: 613 x 623 km, 98.3° (Epoch: 01 March)

Event Time Altitude Azimuth Distance (km) Brightness Sun altitude
Exits shadow 20:11:56 37° 219° (SW) 981 ? -30.3°
Drops below altitude 10° 20:14:47 10° 201° (SSW) 2,024 ? -30.4°
Sets 20:17:02 0° 197° (SSW) 2,938 ? -30.6°
